CST,Max TemperatureF,Mean TemperatureF,Min TemperatureF,Max Dew PointF,MeanDew PointF,Min DewpointF,Max Humidity, Mean Humidity, Min Humidity, Max Sea Level PressureIn, Mean Sea Level PressureIn, Min Sea Level PressureIn, Max VisibilityMiles, Mean VisibilityMiles, Min VisibilityMiles, Max Wind SpeedMPH, Mean Wind SpeedMPH, Max Gust SpeedMPH,PrecipitationIn, CloudCover, Events, WindDirDegrees
2013-12-1,44,34,24,30,27,23,97,78,53,30.14,30.07,29.97,10,8,3,8,2,,0.00,2,,37
2013-12-2,41,36,31,34,31,28,94,81,65,29.96,29.81,29.69,10,6,2,13,5,18,0.00,7,Rain,104
2013-12-3,44,40,37,43,40,35,97,95,91,29.69,29.66,29.63,4,2,0,10,5,10,0.01,8,Fog-Rain,88
2013-12-4,50,40,30,50,43,27,97,95,86,29.76,29.61,29.47,10,3,0,17,7,40,0.01,8,Fog-Rain,148
2013-12-5,30,24,17,27,13,9,86,70,60,30.30,30.09,29.76,10,10,10,20,14,28,0.00,3,Snow,276
2013-12-6,18,14,11,10,5,2,74,66,54,30.59,30.43,30.29,10,10,10,13,9,16,0.00,1,,309
2013-12-7,17,10,3,4,0,-2,79,65,48,30.74,30.64,30.59,10,10,10,12,6,,0.00,0,,318
2013-12-8,23,17,11,21,14,4,96,79,57,30.60,30.23,29.98,10,6,0,13,7,17,0.02,7,Snow,69
2013-12-9,22,7,-9,21,3,-14,94,77,61,30.25,30.15,29.96,10,9,1,18,7,24,0.00,2,Snow,247
2013-12-10,20,4,-11,13,4,-16,88,71,56,30.29,30.14,29.98,10,9,1,21,9,30,0.00,4,Snow,231
2013-12-11,17,4,-8,15,2,-14,93,74,46,30.60,30.45,30.25,10,7,0,15,3,22,0.05,3,Snow,282
2013-12-12,20,8,-5,10,2,-11,89,75,62,30.56,30.35,30.20,10,10,7,10,6,,0.00,3,,199
2013-12-13,29,16,3,24,14,-1,91,81,68,30.20,30.11,30.05,10,10,7,17,5,23,0.00,2,,53
2013-12-14,28,24,18,24,21,12,92,84,74,30.08,30.03,29.99,10,8,3,15,11,20,0.00,7,Snow,352
2013-12-15,17,12,8,11,4,0,85,70,62,30.14,30.08,30.01,10,9,2,16,10,28,0.00,6,Snow,287
2013-12-16,19,14,10,18,8,2,93,77,62,30.13,30.08,30.01,10,8,1,8,4,,0.04,8,Snow,100
2013-12-17,36,27,18,26,19,13,94,76,55,30.15,30.05,29.98,10,8,3,21,8,32,0.00,4,Snow,263
2013-12-18,36,23,10,24,17,7,90,75,52,30.16,29.96,29.79,10,10,10,20,6,25,0.00,0,,168
2013-12-19,36,28,21,32,27,20,96,89,75,29.91,29.84,29.78,10,7,2,15,5,20,0.04,3,Rain-Snow,39
2013-12-20,33,30,26,32,27,24,96,93,90,29.86,29.81,29.76,10,6,2,16,9,21,0.02,8,Rain,12
2013-12-21,30,28,26,29,27,25,96,94,90,29.87,29.80,29.66,7,4,2,14,5,17,0.00,8,Snow,1
2013-12-22,30,24,19,28,23,14,96,86,78,30.18,29.90,29.66,10,6,0,16,11,21,0.08,8,Snow,322
2013-12-23,18,5,-8,14,-3,-14,87,75,67,30.50,30.39,30.18,10,9,2,15,9,18,0.00,2,Snow,263
2013-12-24,17,0,-17,13,-6,-22,86,76,65,30.57,30.47,30.28,10,10,2,10,4,,0.00,3,Snow,159
2013-12-25,25,22,18,23,18,11,93,84,69,30.26,30.18,30.13,10,7,0,14,9,22,0.00,7,Snow,229
2013-12-26,31,22,12,26,19,9,96,83,70,30.24,30.19,30.13,10,9,4,10,5,16,0.00,7,,172
2013-12-27,39,24,8,29,20,6,96,85,67,30.27,30.18,30.07,10,6,0,14,3,,0.00,1,Fog,169
2013-12-28,42,32,23,32,28,22,97,81,57,30.08,29.95,29.78,10,9,2,14,4,20,0.00,0,,166
2013-12-29,39,20,0,31,15,-10,94,75,62,30.28,30.02,29.77,10,9,2,23,11,32,0.00,6,Snow,306
2013-12-30,5,-2,-8,1,-8,-15,86,69,54,30.35,30.27,30.21,10,8,1,8,3,,0.01,4,Snow,318
2013-12-31,10,-1,-12,6,-1,-17,86,81,76,30.36,30.28,30.21,10,8,1,10,2,17,0.01,6,Snow,61